Other Public Products
Issued by NWS Grand Forks, ND

Home | Current Version | Previous Version | Graphics & Text | Print | Product List | Glossary On
Versions: 1 2 3 4 5 6 7 8 9 10 11 12 13 14 15 16 17 18 19 20 21 22 23 24 25 26 27 28 29 30 31 32 33 34 35 36 37 38 39 40 41 42 43 44 45 46 47 48 49 50
000
FPUS83 KFGF 261331
OPUFGF
PRAIRIE TO PINES WEATHER ROUNDUP
NATIONAL WEATHER SERVICE EASTERN NORTH DAKOTA/GRAND FORKS ND
800 AM CDT SUN APR 26 2015

 **SATELLITE DATA USED TO AUGMENT SKY COVER AT AUTOMATED STATIONS**
 *****  WEATHER ACROSS EASTERN NORTH DAKOTA  *****

CITY           SKY/WX    TMP DP  RH WIND       PRES   REMARKS
GRAND FORKS    MOSUNNY   41  29  62 SE10      30.10R
GRAND FORKS AF SUNNY     41  32  69 S6        30.10R
GRAND CITY NWS   N/A     43 N/A N/A S12         N/A
BUXTON           N/A     41  33  72 CALM        N/A
DEVILS LAKE    CLOUDY    45  39  81 SE6       30.06R
FARGO          SUNNY     45  16  31 SE9       30.09S
WAHPETON ARPT  SUNNY     41  21  45 SE7       30.11S
$$

 *****  WEATHER ACROSS CENTRAL AND WESTERN NORTH DAKOTA  *****

CITY           SKY/WX    TMP DP  RH WIND       PRES   REMARKS
JAMESTOWN      PTSUNNY   49  37  63 SE9       30.04R
BISMARCK       CLOUDY    47  46  97 E8        30.02R FOG
MINOT          CLOUDY    47  44  90 S7        30.00R FOG
MINOT AFB      CLOUDY    46  46 100 W7        30.00R
GARRISON         N/A     45  45 100 S6        30.00R
WILLISTON      CLOUDY    38  35  89 NW13      30.04R
DICKINSON      CLOUDY    42  38  85 NW8       29.98S
HETTINGER      LGT RAIN  43  40  89 N9        30.00R FOG
$$

 *****  OTHER OBSERVATIONS NORTHEAST NORTH DAKOTA  *****

CITY           SKY/WX    TMP DP  RH WIND       PRES   REMARKS
WALHALLA       FAIR      45  37  76 S8        30.08R
LANGDON        CLOUDY    48  41  76 S10       30.07R
CAVALIER       FAIR      43  32  65 S10       30.10R
GRAFTON        FAIR      45  32  61 S9        30.11R
CANDO          CLOUDY    46  41  81 S9        30.06R
FORT TOTTEN      N/A     47  40  77 S7        29.95
ROLLA          MIX PCPN  45  45 100 S12       30.05R
RUGBY          NOT AVBL
 ***** THE ABOVE OBSERVATIONS ARE NON NWS ARE NOT QUALITY
        CONTROLLED AND MAY MIS-REPORT RAIN FOR SNOW...
$$

 *****  OTHER OBSERVATIONS SOUTHEAST NORTH DAKOTA *****

CITY           SKY/WX    TMP DP  RH WIND       PRES   REMARKS
COOPERSTOWN    NOT AVBL
VALLEY CITY    FAIR      41  36  81 S10       30.08R
OAKES            N/A     46  37  71 SE7       30.07R
GWINNER        SUNNY     43  36  75 E7        30.09R
SHEYENNE NWR     N/A     40  30  67 SE7       29.95S
BUFFALO        NOT AVBL
WYNDMERE       NOT AVBL
 ***** THE ABOVE OBSERVATIONS ARE NON NWS ARE NOT QUALITY
       CONTROLLED AND MAY MIS-REPORT RAIN FOR SNOW...
$$

  *****  WEATHER ACROSS NORTHERN MINNESOTA  *****

CITY           SKY/WX    TMP DP  RH WIND       PRES   REMARKS
FLAG ISLAND    SUNNY     43  25  49 SE5       30.14S
WARROAD        SUNNY     39  30  70 E3        30.15R
ROSEAU         SUNNY     45  30  57 S6        30.13R
HALLOCK        SUNNY     46  28  49 S12       30.11R
THF RVR FALLS  SUNNY     43  23  45 SE7       30.13R
HALSTAD          N/A     44  27  51 SE9         N/A
FOSSTON        SUNNY     43  19  39 SE9       30.12S
BAUDETTE       SUNNY     38  25  59 SE3       30.15R
WASKISH        SUNNY     39  23  52 CALM      30.16R
CROOKSTON      SUNNY     45  21  39 S9        30.12S
$$
  *****  WEATHER ACROSS CENTRAL AND WEST MINNESOTA  *****

CITY           SKY/WX    TMP DP  RH WIND       PRES   REMARKS
BEMIDJI        SUNNY     40  23  50 SE5       30.14R
PARK RAPIDS    SUNNY     38  19  46 CALM      30.13R
WADENA         SUNNY     36  18  48 NE3       30.13R
DETROIT LAKES  SUNNY     43  14  31 SE10      30.12S
MOORHEAD       SUNNY     43  21  42 SE5       30.11S
FERGUS FALLS   SUNNY     43   5  21 E8        30.12F
ELBOW LAKE     FAIR      39  21  48 E10       30.11R
MORRIS MN      SUNNY     43  25  49 E5        30.10R
STAPLES        SUNNY     37  19  48 CALM      30.13S
WHEATON        SUNNY     37  30  75 CALM      30.12S
$$
  *****  WEATHER ELSEWHERE ACROSS MINNESOTA  *****

CITY           SKY/WX    TMP DP  RH WIND       PRES   REMARKS
DULUTH         SUNNY     39  17  41 E7        30.12R
INTRNTL FALLS  SUNNY     38  29  70 CALM      30.16R
ELY            SUNNY     36  25  64 CALM      30.14S
CLOQUET        SUNNY     37  16  41 E6        30.13R
BRAINERD       SUNNY     36  20  52 NE5       30.13R
HIBBING        SUNNY     37  21  52 CALM      30.13R
ALEXANDRIA     SUNNY     39  18  42 E8        30.12R
SAINT CLOUD    SUNNY     37  24  59 NE7       30.11R
MINNEAPOLIS    SUNNY     41  24  51 NE6       30.09R
$$

  *****  WEATHER ACROSS SOUTH DAKOTA  *****

CITY           SKY/WX    TMP DP  RH WIND       PRES   REMARKS
SIOUX FALLS    MOSUNNY   41  38  89 NE3       30.05R
BROOKINGS      SUNNY     41  37  87 CALM      30.07S
WATERTOWN      SUNNY     40  36  86 CALM      30.06R
HURON          SUNNY     44  39  82 E7        30.04R
SISSETON         N/A     39  35  86 SE6       30.08S
ABERDEEN       MOSUNNY   47  38  71 E5        30.05R
MITCHELL       SUNNY     42  39  89 E8        30.05R
PIERRE         CLOUDY    48  42  80 SE10      29.99R
MOBRIDGE       CLOUDY    51  42  71 S10       29.98R
RAPID CITY     CLOUDY    43  41  93 N16       29.93R
$$

  *****  SOME WEATHER IN NEARBY STATES *****

CITY           SKY/WX    TMP DP  RH WIND       PRES   REMARKS
GLASGOW MT     CLOUDY    38  32  79 NW10      30.05R
GREAT FALLS MT CLOUDY    30  24  78 N10       30.09R WCI  21
CHEYENNE WY    CLOUDY    42  40  92 SE10G22   29.83R
SCOTTSBLUFF NE LGT RAIN  47  47 100 MISG      29.85R
OMAHA NE       MOSUNNY   44  41  89 NW5       30.01R
DES MOINES IA  MOSUNNY   46  36  68 NE10      30.03R
DAVENPORT IA   SUNNY     40  28  62 NE9       30.01R
CHICAGO IL     SUNNY     43  30  60 NE12      29.99R
EAU CLAIRE WI  SUNNY     39  25  57 NE6       30.09R
LA CROSSE WI   SUNNY     42  26  53 NW5       30.08R
$$

  *****  SOME NATIONAL WEATHER *****

CITY           SKY/WX    TMP DP  RH WIND       PRES   REMARKS
LA GUARDIA NY  MOSUNNY   50  31  48 NE9       29.71R
RALEIGH NC     DRIZZLE   47  45  93 NE8       29.68R FOG
ATLANTA GA     MOSUNNY   68  63  83 W8        29.70R
NEW ORLEANS LA FOG       72  70  93 W5        29.77S VSB 1/8
OKLAHOMA CITY  CLOUDY    59  53  80 E15       29.75R
ALBUQUERQUE NM RAIN      47  41  80 W7        29.79R
SALT LAKE CITY LGT RAIN  40  35  83 NW20      29.87R
LOS ANGELES CA PTCLDY    53  50  89 NE7       29.96R
BOISE ID       CLEAR     35  27  72 W9        30.03R
SEATTLE WA     MOCLDY    40  35  83 SE5       30.14R
$$

*** WEATHER ACROSS MANITOBA...SASKATCHEWAN AND ONTARIO ***
                ***ONTARIO***

CITY           SKY/WX    TMP DP  RH WIND       PRES   REMARKS
GERALDTON      MOSUNNY   34  27  75 N6        30.14S
THUNDER BAY    SUNNY     36  25  64 S3        30.18R
SIOUX LOOKOUT  MOSUNNY   36  21  55 SE3       30.20R
TORONTO        MOSUNNY   45  30  57 N12       29.86S
BIG TROUT LK   CLOUDY    23  21  93 E3        30.31R
PICKLE LAKE    MOSUNNY   28  21  74 VRB2      30.22R
DRYDEN         SUNNY     34  21  60 NE6       30.17R
KENORA         MOSUNNY   41  19  42 SE5       30.16R
$$
                *** MANITOBA***

CITY           SKY/WX    TMP DP  RH WIND       PRES   REMARKS
BRANDON        CLOUDY    46  41  81 SE8       30.02R
DAUPHIN        LGT RAIN  45  37  76 SE8       29.99R
ISLAND LAKE    MOSUNNY   34  19  55 SE8       30.23R
PILOT MOUND      N/A     45  39  81 S6          N/A
THE PAS        CLOUDY    34  32  93 E3        30.03S
THOMPSON       CLOUDY    32  28  86 NE9       30.22S WCI  24
WINNIPEG       PTSUNNY   46  28  49 SE13      30.10R
CHURCHILL      MOSUNNY   19  18  93 S5        30.37R WCI  13
GILLAM         PTSUNNY   32  25  74 VRB2      30.29R
$$
                ***SASKATCHEWAN***

CITY           SKY/WX    TMP DP  RH WIND       PRES   REMARKS
ESTEVAN        CLOUDY    37  34  87 W14G20    30.01R
KINDERSLEY     MOCLDY    30  28  93 NW12      30.04R WCI  21
LLOYDMINSTER   MOCLDY    30  14  51 N8        30.08S WCI  23
PRINCE ALBERT  LGT SNOW  32  32 100 NE9       29.94S VSB 1   WCI  24
REGINA         CLOUDY    34  32  93 W22       29.98R WCI  22
YORKTON        CLOUDY    39  37  93 SW15G22   29.93R


USA.gov is the U.S. government's official web portal to all federal, state and local government web resources and services.